STARLINK-11668, 63557

Orbit data source: Space-Track

STARLINK-11668, 63557 is a payload satellite owned by SpaceX/Seattle (US) in LEO that was launched on Sun, 13 Apr 2025 UTC via an FALCON 9 launch vehicle from the Air Force Eastern Test Range (AFETR). Payload-class satellites include a variety of spacecraft equipped with specific instruments for various scientific and technological missions. These include communications satellites like Starlink; space stations such as the ISS; scientific satellites like the Hubble; Earth observation satellites from companies like Planet Labs, Umbra, and HawkEye 360; GPS; miniature CubeSats for education and research; and military/defense satellites.

Loading next visibility...
Identifier
63557, 2025-075K
Orbit
LEO
Last TLE update
11 hours ago
Origin
Manufacturer
SpaceX/Seattle
Mission
Operational spacecraft
Bus & Motor
STARLINK V2M, Unknown motor
Mass
730 kg wet, ~700 kg dry
Launch date (UTC)
2025-04-13 (3 weeks ago)
Launch vehicle
FALCON 9
Launch site
Air Force Eastern Test Range (AFETR)
Object type
Payload
Rocket body
Debris
Shape & HBR
Unknown
Radar Cross Section
Large (>1 m²)

Expand to show TLE details & history

TLE from 11 hours ago
0 STARLINK-11668
1 63557U 25075K   25125.91667824 -.00098171  00000-0 -56547-3 0  9991
2 63557  43.0005 210.8397 0002180 266.6121  71.3182 15.77943644  4810
Epoch: 2025-05-05T22:00Z
Definitive object data (Epoch: 2025-05-05T22:00:00.999Z)
Latitude
-14.97155°
Longitude
0.24432°
Altitude
338.691 km
Speed
7.707 km/s
True Right ascension
12h 57m 05s
True Declination
-14° 52' 50"
Sunlit
Object was in full shadow at TLE epoch
Visualization TLE readout
Latitude
36.67938°
Longitude
141.37997°
Altitude
339.569 km
Speed
7.71 km/s
Apparent Right ascension
01h 32m 46s
Apparent Declination
0° 42' 05"
Sunlit
Object is in daylight
Visualization observer readout
Local Sidereal Time
17:11:17
Azimuth
66.061° ENE
Elevation
-26.857°
Doppler factor
1
Orbital elements
Apogee altitude
339.719 km
Perigee altitude
336.791 km
Semi-major axis
6,716.392 km
Eccentricity
0.000218
Inclination
43.0005°
RAAN
210.8397°
Arg. of periapsis
266.6121°
True anomaly
71.34187°
Mean anomaly
71.3182°
Eccentric anomaly
71.33003°
Mean motion
3.94311 °/min
BSTAR
-0.00056547
Orbital period
91.3 mins
Loading maneuver chart data...
Loading SW <> Apogee altitude chart data...
Loading historical data...
Loading historical data...
Loading historical data...
Loading historical data...
Loading historical data...
Loading historical data...
Loading historical data...

STARLINK-11668 Visibility forecast

Observer location: undefined°, undefined°

Span
Click to sort rows by Start time (UTC) header in descending order
Start Az.
Max El. time (UTC)
Max El. Az.
Max El.
End time (UTC)
End Az.
4 mins2025-05-06 10:31:49.771Z266.302° W2025-05-06 10:33:49.771Z355.453° N41.915°2025-05-06 10:35:49.771Z66.284° ENE
4 mins2025-05-06 13:43:49.771Z284.155° WNW2025-05-06 13:45:49.771Z133.092° SE40.967°2025-05-06 13:47:49.771Z114.652° SE
|